Year,Month,Day,Hour,Minute,Value (Times are PST for temperature in C)
2010,03,21,00,00,8.30
2010,03,21,00,01,8.30
2010,03,21,00,02,8.30
2010,03,21,00,03,8.30
2010,03,21,00,04,8.30
2010,03,21,00,05,8.30
2010,03,21,00,06,8.30
2010,03,21,00,07,8.20
2010,03,21,00,08,8.20
2010,03,21,00,09,8.20
2010,03,21,00,10,8.20
2010,03,21,00,11,8.20
2010,03,21,00,12,8.10
2010,03,21,00,13,8.10
2010,03,21,00,14,8.10
2010,03,21,00,15,8.00
2010,03,21,00,16,8.00
2010,03,21,00,17,8.00
2010,03,21,00,18,8.00
2010,03,21,00,19,7.90
2010,03,21,00,20,7.90
2010,03,21,00,21,7.90
2010,03,21,00,22,7.90
2010,03,21,00,23,7.80
2010,03,21,00,24,7.80
2010,03,21,00,25,7.80
2010,03,21,00,26,7.80
2010,03,21,00,27,7.80
2010,03,21,00,28,7.80
2010,03,21,00,29,7.80
2010,03,21,00,30,7.70
2010,03,21,00,31,7.70
2010,03,21,00,32,7.70
2010,03,21,00,33,7.70
2010,03,21,00,34,7.70
2010,03,21,00,35,7.70
2010,03,21,00,36,7.60
2010,03,21,00,37,7.60
2010,03,21,00,38,7.60
2010,03,21,00,39,7.60
2010,03,21,00,40,7.60
2010,03,21,00,41,7.60
2010,03,21,00,42,7.60
2010,03,21,00,43,7.60
2010,03,21,00,44,7.60
2010,03,21,00,45,7.60
2010,03,21,00,46,7.60
2010,03,21,00,47,7.60
2010,03,21,00,48,7.60
2010,03,21,00,49,7.70
2010,03,21,00,50,7.70
2010,03,21,00,51,7.70
2010,03,21,00,52,7.70
2010,03,21,00,53,7.60
2010,03,21,00,54,7.60
2010,03,21,00,55,7.60
2010,03,21,00,56,7.60
2010,03,21,00,57,7.60
2010,03,21,00,58,7.60
2010,03,21,00,59,7.60
2010,03,21,01,00,7.60
2010,03,21,01,01,7.60
2010,03,21,01,02,7.60
2010,03,21,01,03,7.60
2010,03,21,01,04,7.60
2010,03,21,01,05,7.60
2010,03,21,01,06,7.60
2010,03,21,01,07,7.60
2010,03,21,01,08,7.60
2010,03,21,01,09,7.60
2010,03,21,01,10,7.60
2010,03,21,01,11,7.60
2010,03,21,01,12,7.60
2010,03,21,01,13,7.60
2010,03,21,01,14,7.50
2010,03,21,01,15,7.50
2010,03,21,01,16,7.50
2010,03,21,01,17,7.50
2010,03,21,01,18,7.50
2010,03,21,01,19,7.50
2010,03,21,01,20,7.50
2010,03,21,01,21,7.50
2010,03,21,01,22,7.50
2010,03,21,01,23,7.50
2010,03,21,01,24,7.50
2010,03,21,01,25,7.60
2010,03,21,01,26,7.60
2010,03,21,01,27,7.60
2010,03,21,01,28,7.60
2010,03,21,01,29,7.70
2010,03,21,01,30,7.70
2010,03,21,01,31,7.70
2010,03,21,01,32,7.70
2010,03,21,01,33,7.80
2010,03,21,01,34,7.80
2010,03,21,01,35,7.80
2010,03,21,01,36,7.80
2010,03,21,01,37,7.80
2010,03,21,01,38,7.80
2010,03,21,01,39,7.80
2010,03,21,01,40,7.80
2010,03,21,01,41,7.90
2010,03,21,01,42,7.90
2010,03,21,01,43,7.90
2010,03,21,01,44,7.90
2010,03,21,01,45,7.90
2010,03,21,01,46,7.90
2010,03,21,01,47,8.00
2010,03,21,01,48,8.00
2010,03,21,01,49,8.00
2010,03,21,01,50,8.00
2010,03,21,01,51,8.00
2010,03,21,01,52,8.00
2010,03,21,01,53,8.10
2010,03,21,01,54,8.10
2010,03,21,01,55,8.10
2010,03,21,01,56,8.10
2010,03,21,01,57,8.10
2010,03,21,01,58,8.10
2010,03,21,01,59,8.10
2010,03,21,02,00,8.10
2010,03,21,02,01,8.10
2010,03,21,02,02,8.10
2010,03,21,02,03,8.10
2010,03,21,02,04,8.10
2010,03,21,02,05,8.00
2010,03,21,02,06,8.00
2010,03,21,02,07,8.00
2010,03,21,02,08,8.00
2010,03,21,02,09,8.00
2010,03,21,02,10,8.00
2010,03,21,02,11,8.00
2010,03,21,02,12,8.00
2010,03,21,02,13,8.00
2010,03,21,02,14,8.00
2010,03,21,02,15,8.00
2010,03,21,02,16,8.00
2010,03,21,02,17,8.00
2010,03,21,02,18,8.00
2010,03,21,02,19,8.00
2010,03,21,02,20,8.00
2010,03,21,02,21,8.00
2010,03,21,02,22,8.00
2010,03,21,02,23,8.00
2010,03,21,02,24,8.00
2010,03,21,02,25,8.00
2010,03,21,02,26,8.00
2010,03,21,02,27,8.00
2010,03,21,02,28,8.00
2010,03,21,02,29,7.90
2010,03,21,02,30,7.90
2010,03,21,02,31,7.90
2010,03,21,02,32,7.90
2010,03,21,02,33,7.90
2010,03,21,02,34,7.90
2010,03,21,02,35,7.80
2010,03,21,02,36,7.80
2010,03,21,02,37,7.80
2010,03,21,02,38,7.80
2010,03,21,02,39,7.80
2010,03,21,02,40,7.80
2010,03,21,02,41,7.80
2010,03,21,02,42,7.80
2010,03,21,02,43,7.80
2010,03,21,02,44,7.80
2010,03,21,02,45,7.80
2010,03,21,02,46,7.80
2010,03,21,02,47,7.80
2010,03,21,02,48,7.80
2010,03,21,02,49,7.70
2010,03,21,02,50,7.70
2010,03,21,02,51,7.70
2010,03,21,02,52,7.70
2010,03,21,02,53,7.70
2010,03,21,02,54,7.70
2010,03,21,02,55,7.70
2010,03,21,02,56,7.60
2010,03,21,02,57,7.60
2010,03,21,02,58,7.60
2010,03,21,02,59,7.60
2010,03,21,03,00,7.50
2010,03,21,03,01,7.50
2010,03,21,03,02,7.50
2010,03,21,03,03,7.50
2010,03,21,03,04,7.40
2010,03,21,03,05,7.40
2010,03,21,03,06,7.40
2010,03,21,03,07,7.40
2010,03,21,03,08,7.40
2010,03,21,03,09,7.40
2010,03,21,03,10,7.40
2010,03,21,03,11,7.40
2010,03,21,03,12,7.40
2010,03,21,03,13,7.40
2010,03,21,03,14,7.40
2010,03,21,03,15,7.40
2010,03,21,03,16,7.30
2010,03,21,03,17,7.30
2010,03,21,03,18,7.30
2010,03,21,03,19,7.30
2010,03,21,03,20,7.30
2010,03,21,03,21,7.30
2010,03,21,03,22,7.40
2010,03,21,03,23,7.40
2010,03,21,03,24,7.40
2010,03,21,03,25,7.40
2010,03,21,03,26,7.40
2010,03,21,03,27,7.40
2010,03,21,03,28,7.30
2010,03,21,03,29,7.40
2010,03,21,03,30,7.40
2010,03,21,03,31,7.40
2010,03,21,03,32,7.40
2010,03,21,03,33,7.40
2010,03,21,03,34,7.40
2010,03,21,03,35,7.40
2010,03,21,03,36,7.40
2010,03,21,03,37,7.40
2010,03,21,03,38,7.40
2010,03,21,03,39,7.40
2010,03,21,03,40,7.40
2010,03,21,03,41,7.40
2010,03,21,03,42,7.40
2010,03,21,03,43,7.40
2010,03,21,03,44,7.40
2010,03,21,03,45,7.40
2010,03,21,03,46,7.40
2010,03,21,03,47,7.40
2010,03,21,03,48,7.40
2010,03,21,03,49,7.40
2010,03,21,03,50,7.40
2010,03,21,03,51,7.40
2010,03,21,03,52,7.40
2010,03,21,03,53,7.40
2010,03,21,03,54,7.40
2010,03,21,03,55,7.40
2010,03,21,03,56,7.40
2010,03,21,03,57,7.40
2010,03,21,03,58,7.40
2010,03,21,03,59,7.40
2010,03,21,08,30,8.20
2010,03,21,08,31,8.20
2010,03,21,08,32,8.20
2010,03,21,08,33,8.20
2010,03,21,08,34,8.20
2010,03,21,08,35,8.20
2010,03,21,08,36,8.20
2010,03,21,08,37,8.20
2010,03,21,08,38,8.20
2010,03,21,08,39,8.20
2010,03,21,08,40,8.20
2010,03,21,08,41,8.30
2010,03,21,08,42,8.30
2010,03,21,08,43,8.30
2010,03,21,08,44,8.30
2010,03,21,08,45,8.30
2010,03,21,08,46,8.30
2010,03,21,08,47,8.30
2010,03,21,08,48,8.30
2010,03,21,08,49,8.30
2010,03,21,08,50,8.30
2010,03,21,08,51,8.30
2010,03,21,08,52,8.30
2010,03,21,08,53,8.30
2010,03,21,08,54,8.30
2010,03,21,08,55,8.30
2010,03,21,08,56,8.30
2010,03,21,08,57,8.30
2010,03,21,08,58,8.30
2010,03,21,08,59,8.30
2010,03,21,09,00,8.30
2010,03,21,09,01,8.30
2010,03,21,09,02,8.40
2010,03,21,09,03,8.40
2010,03,21,09,04,8.40
2010,03,21,09,05,8.40
2010,03,21,09,06,8.40
2010,03,21,09,07,8.40
2010,03,21,09,08,8.50
2010,03,21,09,09,8.50
2010,03,21,09,10,8.50
2010,03,21,09,11,8.50
2010,03,21,09,12,8.40
2010,03,21,09,13,8.40
2010,03,21,09,14,8.40
2010,03,21,09,15,8.40
2010,03,21,09,16,8.50
2010,03,21,09,17,8.50
2010,03,21,09,18,8.50
2010,03,21,09,19,8.50
2010,03,21,09,20,8.50
2010,03,21,09,21,8.50
2010,03,21,09,22,8.50
2010,03,21,09,23,8.50
2010,03,21,09,24,8.50
2010,03,21,09,25,8.50
2010,03,21,09,26,8.50
2010,03,21,09,27,8.50
2010,03,21,09,28,8.50
2010,03,21,09,29,8.50
2010,03,21,09,30,8.50
2010,03,21,09,31,8.50
2010,03,21,09,32,8.60
2010,03,21,09,33,8.60
2010,03,21,09,34,8.60
2010,03,21,09,35,8.60
2010,03,21,09,36,8.70
2010,03,21,09,37,8.70
2010,03,21,09,38,8.70
2010,03,21,09,39,8.70
2010,03,21,09,40,8.70
2010,03,21,09,41,8.70
2010,03,21,09,42,8.70
2010,03,21,09,43,8.70
2010,03,21,09,44,8.70
2010,03,21,09,45,8.70
2010,03,21,09,46,8.70
2010,03,21,09,47,8.70
2010,03,21,09,48,8.70
2010,03,21,09,49,8.70
2010,03,21,09,50,8.70
2010,03,21,09,51,8.70
2010,03,21,09,52,8.80
2010,03,21,09,53,8.90
2010,03,21,09,54,9.00
2010,03,21,09,55,9.00
2010,03,21,09,56,9.10
2010,03,21,09,57,9.10
2010,03,21,09,58,9.20
2010,03,21,09,59,9.20
2010,03,21,10,00,9.30
2010,03,21,10,01,9.30
2010,03,21,10,02,9.40
2010,03,21,10,03,9.40
2010,03,21,10,04,9.40
2010,03,21,10,05,9.40
2010,03,21,10,06,9.40
2010,03,21,10,07,9.40
2010,03,21,10,08,9.40
2010,03,21,10,09,9.40
2010,03,21,10,10,9.50
2010,03,21,10,11,9.50
2010,03,21,10,12,9.60
2010,03,21,10,13,9.60
2010,03,21,10,14,9.70
2010,03,21,10,15,9.70
2010,03,21,10,16,9.70
2010,03,21,10,17,9.70
2010,03,21,10,18,9.80
2010,03,21,10,19,9.80
2010,03,21,10,20,9.90
2010,03,21,10,21,9.90
2010,03,21,10,22,9.90
2010,03,21,10,23,9.90
2010,03,21,10,24,9.90
2010,03,21,10,25,9.90
2010,03,21,10,26,10.00
2010,03,21,10,27,10.10
2010,03,21,10,28,10.10
2010,03,21,10,29,10.10
2010,03,21,10,30,10.10
2010,03,21,10,31,10.10
2010,03,21,10,32,10.10
2010,03,21,10,33,10.10
2010,03,21,10,34,10.10
2010,03,21,10,35,10.20
2010,03,21,10,36,10.10
2010,03,21,10,37,10.10
2010,03,21,10,38,10.10
2010,03,21,10,39,10.10
2010,03,21,10,40,10.20
2010,03,21,10,41,10.20
2010,03,21,10,42,10.30
2010,03,21,10,43,10.40
2010,03,21,10,44,10.40
2010,03,21,10,45,10.40
2010,03,21,10,46,10.30
2010,03,21,10,47,10.30
2010,03,21,10,48,10.20
2010,03,21,10,49,10.10
2010,03,21,10,50,10.00
2010,03,21,10,51,9.90
2010,03,21,10,52,9.90
2010,03,21,10,53,9.90
2010,03,21,10,54,9.90
2010,03,21,10,55,10.10
2010,03,21,10,56,10.20
2010,03,21,10,57,10.20
2010,03,21,10,58,10.40
2010,03,21,10,59,10.40
2010,03,21,11,00,10.50
2010,03,21,11,01,10.60
2010,03,21,11,02,10.60
2010,03,21,11,03,10.60
2010,03,21,11,04,10.60
2010,03,21,11,05,10.70
2010,03,21,11,06,10.70
2010,03,21,11,07,10.70
2010,03,21,11,08,10.70
2010,03,21,11,09,10.70
2010,03,21,11,10,10.70
2010,03,21,11,11,10.70
2010,03,21,11,12,10.80
2010,03,21,11,13,10.70
2010,03,21,11,14,10.70
2010,03,21,11,15,10.80
2010,03,21,11,16,10.80
2010,03,21,11,17,10.90
2010,03,21,11,18,10.90
2010,03,21,11,19,10.80
2010,03,21,11,20,10.80
2010,03,21,11,21,10.80
2010,03,21,11,22,10.80
2010,03,21,11,23,10.90
2010,03,21,11,24,10.90
2010,03,21,11,25,10.90
2010,03,21,11,26,10.90
2010,03,21,11,27,10.90
2010,03,21,11,28,10.90
2010,03,21,11,29,11.00
2010,03,21,11,30,11.00
2010,03,21,11,31,10.90
2010,03,21,11,32,10.90
2010,03,21,11,33,10.80
2010,03,21,11,34,10.70
2010,03,21,11,35,10.70
2010,03,21,11,36,10.80
2010,03,21,11,37,10.80
2010,03,21,11,38,10.80
2010,03,21,11,39,10.70
2010,03,21,11,40,10.60
2010,03,21,11,41,10.60
2010,03,21,11,42,10.60
2010,03,21,11,43,10.60
2010,03,21,11,44,10.60
2010,03,21,11,45,10.60
2010,03,21,11,46,10.60
2010,03,21,11,47,10.60
2010,03,21,11,48,10.60
2010,03,21,11,49,10.60
2010,03,21,11,50,10.60
2010,03,21,11,51,10.60
2010,03,21,11,52,10.60
2010,03,21,11,53,10.60
2010,03,21,11,54,10.60
2010,03,21,11,55,10.60
2010,03,21,11,56,10.60
2010,03,21,11,57,10.50
2010,03,21,11,58,10.40
2010,03,21,11,59,10.30
2010,03,21,12,00,10.20
2010,03,21,12,01,10.20
2010,03,21,12,02,10.10
2010,03,21,12,03,10.20
2010,03,21,12,04,10.20
2010,03,21,12,05,10.30
2010,03,21,12,06,10.40
2010,03,21,12,07,10.40
2010,03,21,12,08,10.40
2010,03,21,12,09,10.40
2010,03,21,12,10,10.40
2010,03,21,12,11,10.40
2010,03,21,12,12,10.40
2010,03,21,12,13,10.40
2010,03,21,12,14,10.40
2010,03,21,12,15,10.40
2010,03,21,12,16,10.50
2010,03,21,12,17,10.60
2010,03,21,12,18,10.60
2010,03,21,12,19,10.70
2010,03,21,12,20,10.70
2010,03,21,12,21,10.80
2010,03,21,12,22,10.80
2010,03,21,12,23,10.90
2010,03,21,12,24,10.90
2010,03,21,12,25,11.00
2010,03,21,12,26,10.90
2010,03,21,12,27,10.90
2010,03,21,12,28,10.80
2010,03,21,12,29,10.80
2010,03,21,12,30,10.80
2010,03,21,12,31,10.80
2010,03,21,12,32,10.80
2010,03,21,12,33,10.80
2010,03,21,12,34,10.80
2010,03,21,12,35,10.80
2010,03,21,12,36,10.80
2010,03,21,12,37,10.90
2010,03,21,12,38,10.90
2010,03,21,12,39,10.90
2010,03,21,12,40,10.90
2010,03,21,12,41,10.90
2010,03,21,12,42,10.90
2010,03,21,12,43,11.00
2010,03,21,12,44,11.10
2010,03,21,12,45,11.10
2010,03,21,12,46,11.10
2010,03,21,12,47,11.20
2010,03,21,12,48,11.20
2010,03,21,12,49,11.30
2010,03,21,12,50,11.30
2010,03,21,12,51,11.40
2010,03,21,12,52,11.40
2010,03,21,12,53,11.50
2010,03,21,12,54,11.60
2010,03,21,12,55,11.50
2010,03,21,12,56,11.40
2010,03,21,12,57,11.40
2010,03,21,12,58,11.40
2010,03,21,12,59,11.40
2010,03,21,13,00,11.40
2010,03,21,13,01,11.40
2010,03,21,13,02,11.50
2010,03,21,13,03,11.60
2010,03,21,13,04,11.60
2010,03,21,13,05,11.60
2010,03,21,13,06,11.60
2010,03,21,13,07,11.60
2010,03,21,13,08,11.60
2010,03,21,13,09,11.60
2010,03,21,13,10,11.60
2010,03,21,13,11,11.60
2010,03,21,13,12,11.60
2010,03,21,13,13,11.60
2010,03,21,13,14,11.60
2010,03,21,13,15,11.60
2010,03,21,13,16,11.70
2010,03,21,13,17,11.70
2010,03,21,13,18,11.80
2010,03,21,13,19,11.90
2010,03,21,13,20,12.00
2010,03,21,13,21,12.10
2010,03,21,13,22,12.30
2010,03,21,13,23,12.30
2010,03,21,13,24,12.40
2010,03,21,13,25,12.40
2010,03,21,13,26,12.40
2010,03,21,13,27,12.30
2010,03,21,13,28,12.30
2010,03,21,13,29,12.20
2010,03,21,13,30,12.20
2010,03,21,13,31,12.20
2010,03,21,13,32,12.30
2010,03,21,13,33,12.30
2010,03,21,13,34,12.40
2010,03,21,13,35,12.40
2010,03,21,13,36,12.50
2010,03,21,13,37,12.50
2010,03,21,13,38,12.40
2010,03,21,13,39,12.40
2010,03,21,13,40,12.30
2010,03,21,13,41,12.30
2010,03,21,13,42,12.20
2010,03,21,13,43,12.10
2010,03,21,13,44,12.00
2010,03,21,13,45,11.90
2010,03,21,13,46,11.90
2010,03,21,13,47,11.90
2010,03,21,13,48,11.80
2010,03,21,13,49,11.80
2010,03,21,13,50,11.80
2010,03,21,13,51,11.80
2010,03,21,13,52,11.80
2010,03,21,13,53,11.80
2010,03,21,13,54,11.80
2010,03,21,13,55,11.80
2010,03,21,13,56,11.80
2010,03,21,13,57,11.70
2010,03,21,13,58,11.80
2010,03,21,13,59,11.80
2010,03,21,14,00,11.80
2010,03,21,14,01,11.80
2010,03,21,14,02,11.80
2010,03,21,14,03,11.80
2010,03,21,14,04,11.70
2010,03,21,14,05,11.70
2010,03,21,14,06,11.70
2010,03,21,14,07,11.70
2010,03,21,14,08,11.70
2010,03,21,14,09,11.70
2010,03,21,14,10,11.60
2010,03,21,14,11,11.60
2010,03,21,14,12,11.60
2010,03,21,14,13,11.60
2010,03,21,14,14,11.60
2010,03,21,14,15,11.60
2010,03,21,14,16,11.50
2010,03,21,14,17,11.60
2010,03,21,14,18,11.60
2010,03,21,14,19,11.60
2010,03,21,14,20,11.60
2010,03,21,14,21,11.60
2010,03,21,14,22,11.60
2010,03,21,14,23,11.50
2010,03,21,14,24,11.40
2010,03,21,14,25,11.40
2010,03,21,14,26,11.40
2010,03,21,14,27,11.40
2010,03,21,14,28,11.40
2010,03,21,14,29,11.40
2010,03,21,14,30,11.40
2010,03,21,14,31,11.40
2010,03,21,14,32,11.40
2010,03,21,14,33,11.40
2010,03,21,14,34,11.60
2010,03,21,14,35,11.60
2010,03,21,14,36,11.60
2010,03,21,14,37,11.60
2010,03,21,14,38,11.60
2010,03,21,14,39,11.60
2010,03,21,14,40,11.60
2010,03,21,14,41,11.60
2010,03,21,14,42,11.60
2010,03,21,14,43,11.50
2010,03,21,14,44,11.40
2010,03,21,14,45,11.40
2010,03,21,14,46,11.40
2010,03,21,14,47,11.40
2010,03,21,14,48,11.30
2010,03,21,14,49,11.30
2010,03,21,14,50,11.20
2010,03,21,14,51,11.20
2010,03,21,14,52,11.10
2010,03,21,14,53,11.10
2010,03,21,14,54,11.10
2010,03,21,14,55,11.10
2010,03,21,14,56,11.10
2010,03,21,14,57,11.10
2010,03,21,14,58,11.10
2010,03,21,14,59,11.10
2010,03,21,15,00,11.10
2010,03,21,15,01,10.90
2010,03,21,15,02,10.90
2010,03,21,15,03,10.80
2010,03,21,15,04,10.60
2010,03,21,15,05,10.50
2010,03,21,15,06,10.40
2010,03,21,15,07,10.40
2010,03,21,15,08,10.30
2010,03,21,15,09,10.20
2010,03,21,15,10,10.10
2010,03,21,15,11,10.10
2010,03,21,15,12,10.10
2010,03,21,15,13,9.90
2010,03,21,15,14,9.90
2010,03,21,15,15,9.80
2010,03,21,15,16,9.80
2010,03,21,15,17,9.70
2010,03,21,15,18,9.70
2010,03,21,15,19,9.50
2010,03,21,15,20,9.40
2010,03,21,15,21,9.20
2010,03,21,15,22,9.20
2010,03,21,15,23,9.10
2010,03,21,15,24,9.00
2010,03,21,15,25,9.00
2010,03,21,15,26,9.00
2010,03,21,15,27,9.00
2010,03,21,15,28,9.00
2010,03,21,15,29,9.00
2010,03,21,15,30,8.90
2010,03,21,15,31,9.00
2010,03,21,15,32,9.00
2010,03,21,15,33,9.00
2010,03,21,15,34,9.00
2010,03,21,15,35,9.00
2010,03,21,15,36,9.00
2010,03,21,15,37,9.00
2010,03,21,15,38,9.00
2010,03,21,15,39,9.10
2010,03,21,15,40,9.10
2010,03,21,15,41,9.20
2010,03,21,15,42,9.20
2010,03,21,15,43,9.40
2010,03,21,15,44,9.50
2010,03,21,15,45,9.50
2010,03,21,15,46,9.70
2010,03,21,15,47,9.70
2010,03,21,15,48,9.80
2010,03,21,15,49,9.80
2010,03,21,15,50,9.80
2010,03,21,15,51,9.80
2010,03,21,15,52,9.80
2010,03,21,15,53,9.80
2010,03,21,15,54,9.80
2010,03,21,15,55,9.80
2010,03,21,15,56,9.70
2010,03,21,15,57,9.80
2010,03,21,15,58,9.80
2010,03,21,15,59,9.80
2010,03,21,16,00,9.80
2010,03,21,16,01,9.80
2010,03,21,16,02,9.80
2010,03,21,16,03,9.80
2010,03,21,16,04,9.90
2010,03,21,16,05,9.90
2010,03,21,16,06,9.90
2010,03,21,16,07,9.90
2010,03,21,16,08,9.90
2010,03,21,16,09,9.90
2010,03,21,16,10,9.90
2010,03,21,16,11,9.90
2010,03,21,16,12,9.90
2010,03,21,16,13,9.90
2010,03,21,16,14,10.00
2010,03,21,16,15,10.10
2010,03,21,16,16,10.10
2010,03,21,16,17,10.00
2010,03,21,16,18,9.90
2010,03,21,16,19,9.90
2010,03,21,16,20,9.90
2010,03,21,16,21,9.80
2010,03,21,16,22,9.80
2010,03,21,16,23,9.70
2010,03,21,16,24,9.60
2010,03,21,16,25,9.60
2010,03,21,16,26,9.50
2010,03,21,16,27,9.50
2010,03,21,16,28,9.50
2010,03,21,16,29,9.40
2010,03,21,16,30,9.40
2010,03,21,16,31,9.40
2010,03,21,16,32,9.40
2010,03,21,16,33,9.40
2010,03,21,16,34,9.30
2010,03,21,16,35,9.30
2010,03,21,16,36,9.30
2010,03,21,16,37,9.20
2010,03,21,16,38,9.20
2010,03,21,16,39,9.20
2010,03,21,16,40,9.20
2010,03,21,16,41,9.20
2010,03,21,16,42,9.10
2010,03,21,16,43,9.10
2010,03,21,16,44,9.10
2010,03,21,16,45,9.00
2010,03,21,16,46,9.00
2010,03,21,16,47,9.00
2010,03,21,16,48,8.90
2010,03,21,16,49,8.80
2010,03,21,16,50,8.70
2010,03,21,16,51,8.60
2010,03,21,16,52,8.50
2010,03,21,16,53,8.40
2010,03,21,16,54,8.40
2010,03,21,16,55,8.30
2010,03,21,16,56,8.30
2010,03,21,16,57,8.20
2010,03,21,16,58,8.20
2010,03,21,16,59,8.20
2010,03,21,17,00,8.20
2010,03,21,17,01,8.10
2010,03,21,17,02,8.10
2010,03,21,17,03,8.00
2010,03,21,17,04,8.00
2010,03,21,17,05,8.00
2010,03,21,17,06,8.00
2010,03,21,17,07,7.90
2010,03,21,17,08,7.90
2010,03,21,17,09,7.90
2010,03,21,17,10,7.90
2010,03,21,17,11,7.90
2010,03,21,17,12,7.90
2010,03,21,17,13,7.90
2010,03,21,17,14,7.90
2010,03,21,17,15,7.90
2010,03,21,17,16,7.90
2010,03,21,17,17,7.90
2010,03,21,17,18,7.80
2010,03,21,17,19,7.80
2010,03,21,17,20,7.80
2010,03,21,17,21,7.80
2010,03,21,17,22,7.80
2010,03,21,17,23,7.80
2010,03,21,17,24,7.80
2010,03,21,17,25,7.80
2010,03,21,17,26,7.80
2010,03,21,17,27,7.80
2010,03,21,17,28,7.80
2010,03,21,17,29,7.80
2010,03,21,17,30,7.80
2010,03,21,17,31,7.80
2010,03,21,17,32,7.80
2010,03,21,17,33,7.90
2010,03,21,17,34,7.90
2010,03,21,17,35,7.90
2010,03,21,17,36,7.90
2010,03,21,17,37,7.90
2010,03,21,17,38,7.90
2010,03,21,17,39,7.90
2010,03,21,17,40,7.90
2010,03,21,17,41,7.90
2010,03,21,17,42,7.90
2010,03,21,17,43,7.90
2010,03,21,17,44,7.90
2010,03,21,17,45,7.90
2010,03,21,17,46,7.90
2010,03,21,17,47,7.90
2010,03,21,17,48,7.90
2010,03,21,17,49,7.90
2010,03,21,17,50,7.90
2010,03,21,17,51,7.90
2010,03,21,17,52,7.80
2010,03,21,17,53,7.80
2010,03,21,17,54,7.80
2010,03,21,17,55,7.80
2010,03,21,17,56,7.80
2010,03,21,17,57,7.70
2010,03,21,17,58,7.60
2010,03,21,17,59,7.60
2010,03,21,18,00,7.50
2010,03,21,18,01,7.50
2010,03,21,18,02,7.40
2010,03,21,18,03,7.30
2010,03,21,18,04,7.30
2010,03,21,18,05,7.30
2010,03,21,18,06,7.30
2010,03,21,18,07,7.30
2010,03,21,18,08,7.30
2010,03,21,18,09,7.20
2010,03,21,18,10,7.20
2010,03,21,18,11,7.20
2010,03,21,18,12,7.20
2010,03,21,18,13,7.20
2010,03,21,18,14,7.20
2010,03,21,18,15,7.20
2010,03,21,18,16,7.20
2010,03,21,18,17,7.20
2010,03,21,18,18,7.20
2010,03,21,18,19,7.20
2010,03,21,18,20,7.20
2010,03,21,18,21,7.10
2010,03,21,18,22,7.10
2010,03,21,18,23,7.10
2010,03,21,18,24,7.20
2010,03,21,18,25,7.20
2010,03,21,18,26,7.20
2010,03,21,18,27,7.20
2010,03,21,18,28,7.20
2010,03,21,18,29,7.20
2010,03,21,18,30,7.20
2010,03,21,18,31,7.20
2010,03,21,18,32,7.20
2010,03,21,18,33,7.20
2010,03,21,18,34,7.20
2010,03,21,18,35,7.20
2010,03,21,18,36,7.30
2010,03,21,18,37,7.30
2010,03,21,18,38,7.30
2010,03,21,18,39,7.30
2010,03,21,18,40,7.20
2010,03,21,18,41,7.20
2010,03,21,18,42,7.20
2010,03,21,18,43,7.20
2010,03,21,18,44,7.20
2010,03,21,18,45,7.20
2010,03,21,18,46,7.20
2010,03,21,18,47,7.30
2010,03,21,18,48,7.30
2010,03,21,18,49,7.30
2010,03,21,18,50,7.30
2010,03,21,18,51,7.30
2010,03,21,18,52,7.30
2010,03,21,18,53,7.30
2010,03,21,18,54,7.30
2010,03,21,18,55,7.30
2010,03,21,18,56,7.20
2010,03,21,18,57,7.20
2010,03,21,18,58,7.20
2010,03,21,18,59,7.20
2010,03,21,19,00,7.20
2010,03,21,19,01,7.20
2010,03,21,19,02,7.20
2010,03,21,19,03,7.20
2010,03,21,19,04,7.20
2010,03,21,19,05,7.20
2010,03,21,19,06,7.20
2010,03,21,19,07,7.20
2010,03,21,19,08,7.10
2010,03,21,19,09,7.10
2010,03,21,19,10,7.10
2010,03,21,19,11,7.10
2010,03,21,19,12,7.10
2010,03,21,19,13,7.10
2010,03,21,19,14,7.10
2010,03,21,19,15,7.10
2010,03,21,19,16,7.10
2010,03,21,19,17,7.10
2010,03,21,19,18,7.10
2010,03,21,19,19,7.10
2010,03,21,19,20,7.10
2010,03,21,19,21,7.00
2010,03,21,19,22,7.00
2010,03,21,19,23,7.00
2010,03,21,19,24,7.00
2010,03,21,19,25,6.90
2010,03,21,19,26,6.90
2010,03,21,19,27,6.90
2010,03,21,19,28,6.80
2010,03,21,19,29,6.80
2010,03,21,19,30,6.80
2010,03,21,19,31,6.80
2010,03,21,19,32,6.80
2010,03,21,19,33,6.70
2010,03,21,19,34,6.70
2010,03,21,19,35,6.70
2010,03,21,19,36,6.70
2010,03,21,19,37,6.60
2010,03,21,19,38,6.60
2010,03,21,19,39,6.60
2010,03,21,19,40,6.60
2010,03,21,19,41,6.60
2010,03,21,19,42,6.60
2010,03,21,19,43,6.60
2010,03,21,19,44,6.60
2010,03,21,19,45,6.60
2010,03,21,19,46,6.60
2010,03,21,19,47,6.60
2010,03,21,19,48,6.60
2010,03,21,19,49,6.60
2010,03,21,19,50,6.50
2010,03,21,19,51,6.40
2010,03,21,19,52,6.40
2010,03,21,19,53,6.40
2010,03,21,19,54,6.40
2010,03,21,19,55,6.40
2010,03,21,19,56,6.40
2010,03,21,19,57,6.40
2010,03,21,19,58,6.40
2010,03,21,19,59,6.40
2010,03,21,20,00,6.30
2010,03,21,20,01,6.30
2010,03,21,20,02,6.30
2010,03,21,20,03,6.30
2010,03,21,20,04,6.30
2010,03,21,20,05,6.20
2010,03,21,20,06,6.20
2010,03,21,20,07,6.20
2010,03,21,20,08,6.20
2010,03,21,20,09,6.20
2010,03,21,20,10,6.20
2010,03,21,20,11,6.20
2010,03,21,20,12,6.20
2010,03,21,20,13,6.10
2010,03,21,20,14,6.10
2010,03,21,20,15,6.10
2010,03,21,20,16,6.10
2010,03,21,20,17,6.10
2010,03,21,20,18,6.00
2010,03,21,20,19,6.00
2010,03,21,20,20,6.00
2010,03,21,20,21,6.00
2010,03,21,20,22,5.90
2010,03,21,20,23,5.90
2010,03,21,20,24,5.90
2010,03,21,20,25,5.80
2010,03,21,20,26,5.80
2010,03,21,20,27,5.70
2010,03,21,20,28,5.70
2010,03,21,20,29,5.70
2010,03,21,20,30,5.70
2010,03,21,20,31,5.70
2010,03,21,20,32,5.70
2010,03,21,20,33,5.60
2010,03,21,20,34,5.60
2010,03,21,20,35,5.60
2010,03,21,20,36,5.50
2010,03,21,20,37,5.50
2010,03,21,20,38,5.50
2010,03,21,20,39,5.50
2010,03,21,20,40,5.50
2010,03,21,20,41,5.50
2010,03,21,20,42,5.50
2010,03,21,20,43,5.50
2010,03,21,20,44,5.50
2010,03,21,20,45,5.50
2010,03,21,20,46,5.50
2010,03,21,20,47,5.40
2010,03,21,20,48,5.40
2010,03,21,20,49,5.40
2010,03,21,20,50,5.40
2010,03,21,20,51,5.40
2010,03,21,20,52,5.40
2010,03,21,20,53,5.40
2010,03,21,20,54,5.30
2010,03,21,20,55,5.30
2010,03,21,20,56,5.30
2010,03,21,20,57,5.30
2010,03,21,20,58,5.30
2010,03,21,20,59,5.30
2010,03,21,21,00,5.30
2010,03,21,21,01,5.30
2010,03,21,21,02,5.30
2010,03,21,21,03,5.30
2010,03,21,21,04,5.30
2010,03,21,21,05,5.30
2010,03,21,21,06,5.30
2010,03,21,21,07,5.30
2010,03,21,21,08,5.30
2010,03,21,21,09,5.30
2010,03,21,21,10,5.30
2010,03,21,21,11,5.30
2010,03,21,21,12,5.30
2010,03,21,21,13,5.30
2010,03,21,21,14,5.20
2010,03,21,21,15,5.20
2010,03,21,21,16,5.20
2010,03,21,21,17,5.20
2010,03,21,21,18,5.20
2010,03,21,21,19,5.20
2010,03,21,21,20,5.20
2010,03,21,21,21,5.20
2010,03,21,21,22,5.20
2010,03,21,21,23,5.20
2010,03,21,21,24,5.20
2010,03,21,21,25,5.20
2010,03,21,21,26,5.20
2010,03,21,21,27,5.20
2010,03,21,21,28,5.20
2010,03,21,21,29,5.20
2010,03,21,21,30,5.10
2010,03,21,21,31,5.10
2010,03,21,21,32,5.10
2010,03,21,21,33,5.10
2010,03,21,21,34,5.10
2010,03,21,21,35,5.10
2010,03,21,21,36,5.10
2010,03,21,21,37,5.10
2010,03,21,21,38,5.10
2010,03,21,21,39,5.20
2010,03,21,21,40,5.20
2010,03,21,21,41,5.20
2010,03,21,21,42,5.20
2010,03,21,21,43,5.20
2010,03,21,21,44,5.20
2010,03,21,21,45,5.20
2010,03,21,21,46,5.20
2010,03,21,21,47,5.20
2010,03,21,21,48,5.20
2010,03,21,21,49,5.20
2010,03,21,21,50,5.20
2010,03,21,21,51,5.20
2010,03,21,21,52,5.20
2010,03,21,21,53,5.20
2010,03,21,21,54,5.20
2010,03,21,21,55,5.20
2010,03,21,21,56,5.20
2010,03,21,21,57,5.20
2010,03,21,21,58,5.20
2010,03,21,21,59,5.20
2010,03,21,22,00,5.20
2010,03,21,22,01,5.20
2010,03,21,22,02,5.20
2010,03,21,22,03,5.20
2010,03,21,22,04,5.20
2010,03,21,22,05,5.20
2010,03,21,22,06,5.20
2010,03,21,22,07,5.20
2010,03,21,22,08,5.20
2010,03,21,22,09,5.20
2010,03,21,22,10,5.20
2010,03,21,22,11,5.20
2010,03,21,22,12,5.20
2010,03,21,22,13,5.20
2010,03,21,22,14,5.20
2010,03,21,22,15,5.30
2010,03,21,22,16,5.30
2010,03,21,22,17,5.30
2010,03,21,22,18,5.30
2010,03,21,22,19,5.30
2010,03,21,22,20,5.30
2010,03,21,22,21,5.30
2010,03,21,22,22,5.30
2010,03,21,22,23,5.30